Total_Precipitation_Accumulation
0.16 0.26 0.68 0.86 0.91 0.90 0.93 0.93 0.95 0.86 0.84 0.87 0.87 0.91 0.93 0.93 0.92 0.89 0.88 0.93 0.99 1.01 0.99 1.07 1.14 1.08 0.92 0.74 0.61 0.56 0.51 0.49 0.49 0.52 0.58 0.65 0.66 0.66 0.61 0.52 0.45 0.50 0.68
0.17 0.27 0.60 0.83 0.94 0.95 1.01 1.00 0.99 0.88 0.84 0.89 0.93 0.98 0.96 0.93 0.91 0.91 0.95 1.00 1.08 1.10 1.06 1.05 1.03 0.98 0.89 0.73 0.61 0.52 0.46 0.41 0.36 0.34 0.38 0.44 0.57 0.69 0.65 0.58 0.55 0.67 0.72
0.16 0.27 0.53 0.83 0.95 0.97 1.02 1.01 1.01 0.92 0.88 0.88 0.96 1.04 1.05 1.02 0.95 0.99 1.03 1.08 1.13 1.16 1.13 1.06 1.00 0.92 0.77 0.68 0.64 0.55 0.48 0.40 0.31 0.25 0.26 0.32 0.50 0.71 0.67 0.65 0.65 0.72 0.76
0.17 0.30 0.49 0.79 0.95 1.02 1.03 1.01 0.99 0.96 0.98 0.97 1.00 1.07 1.08 1.02 0.95 0.98 1.05 1.06 1.12 1.15 1.19 1.12 1.00 0.93 0.78 0.68 0.65 0.60 0.52 0.42 0.31 0.22 0.16 0.26 0.49 0.82 0.81 0.78 0.74 0.73 0.74
0.23 0.34 0.55 0.82 0.99 1.07 1.07 1.02 0.99 0.98 1.03 1.06 1.07 1.13 1.12 1.10 0.99 0.92 0.91 0.95 1.02 1.08 1.13 1.16 1.01 0.91 0.79 0.68 0.61 0.59 0.59 0.49 0.32 0.18 0.14 0.21 0.46 0.90 0.93 0.85 0.79 0.75 0.71
0.26 0.35 0.57 0.84 1.04 1.08 1.08 1.10 1.02 1.03 1.10 1.13 1.15 1.22 1.21 1.17 1.08 0.99 0.90 0.90 0.89 0.95 1.01 1.05 0.98 0.92 0.81 0.69 0.66 0.67 0.67 0.59 0.31 0.14 0.14 0.20 0.45 0.89 0.96 0.85 0.77 0.74 0.72
0.36 0.45 0.64 0.91 1.11 1.17 1.17 1.18 1.15 1.13 1.17 1.21 1.20 1.26 1.31 1.24 1.20 1.09 0.95 0.88 0.80 0.79 0.84 0.91 0.88 0.88 0.85 0.75 0.72 0.74 0.78 0.61 0.30 0.21 0.19 0.21 0.44 0.97 1.18 1.02 0.86 0.79 0.77
0.45 0.59 0.78 1.11 1.27 1.37 1.39 1.34 1.30 1.33 1.38 1.37 1.36 1.37 1.41 1.34 1.22 1.13 1.01 0.92 0.85 0.83 0.83 0.84 0.83 0.84 0.86 0.83 0.77 0.76 0.74 0.51 0.30 0.28 0.27 0.30 0.56 1.11 1.36 1.33 1.10 0.89 0.80
0.55 0.70 0.85 1.07 1.30 1.56 1.71 1.68 1.58 1.54 1.54 1.52 1.49 1.51 1.52 1.48 1.40 1.29 1.18 1.06 0.99 0.93 0.89 0.81 0.74 0.72 0.73 0.78 0.76 0.69 0.58 0.42 0.25 0.31 0.32 0.41 0.58 1.09 1.32 1.40 1.26 1.09 0.94
0.67 0.81 0.95 1.12 1.30 1.52 1.72 1.86 1.77 1.64 1.60 1.65 1.65 1.61 1.62 1.56 1.53 1.47 1.30 1.14 1.05 1.00 0.90 0.82 0.74 0.69 0.64 0.63 0.60 0.54 0.43 0.34 0.24 0.31 0.44 0.45 0.57 1.10 1.35 1.39 1.28 1.19 1.10
0.83 0.93 1.04 1.23 1.37 1.57 1.76 1.81 1.84 1.78 1.72 1.71 1.65 1.59 1.60 1.55 1.46 1.39 1.23 1.17 1.12 1.05 0.97 0.91 0.84 0.74 0.63 0.52 0.48 0.43 0.35 0.26 0.26 0.38 0.44 0.47 0.71 1.18 1.39 1.40 1.31 1.22 1.19
0.86 0.98 1.08 1.26 1.37 1.56 1.60 1.75 1.90 1.82 1.75 1.70 1.55 1.53 1.48 1.48 1.47 1.32 1.26 1.22 1.18 1.11 1.07 1.04 0.96 0.83 0.67 0.51 0.49 0.46 0.31 0.23 0.23 0.24 0.28 0.39 0.74 1.22 1.41 1.39 1.40 1.37 1.34
0.82 1.02 1.11 1.28 1.42 1.53 1.59 1.62 1.76 1.78 1.73 1.68 1.60 1.55 1.53 1.56 1.59 1.49 1.37 1.33 1.22 1.13 1.10 1.07 1.01 0.81 0.70 0.62 0.57 0.46 0.34 0.28 0.23 0.20 0.20 0.29 0.50 0.83 1.20 1.37 1.43 1.47 1.49
0.89 1.07 1.20 1.39 1.53 1.58 1.65 1.69 1.70 1.79 1.77 1.69 1.66 1.63 1.60 1.56 1.54 1.49 1.36 1.26 1.19 1.15 1.13 1.08 1.01 0.86 0.74 0.64 0.58 0.47 0.39 0.33 0.27 0.23 0.19 0.22 0.33 0.50 0.80 1.11 1.30 1.45 1.57
0.94 1.11 1.29 1.50 1.61 1.66 1.72 1.78 1.77 1.76 1.72 1.68 1.62 1.63 1.56 1.51 1.47 1.42 1.34 1.27 1.21 1.14 1.06 1.00 0.92 0.83 0.74 0.67 0.60 0.51 0.47 0.41 0.35 0.30 0.24 0.24 0.25 0.33 0.53 0.82 1.11 1.37 1.57
1.00 1.14 1.35 1.54 1.65 1.71 1.72 1.74 1.72 1.74 1.70 1.68 1.62 1.53 1.51 1.49 1.45 1.43 1.40 1.35 1.28 1.22 1.13 1.04 0.93 0.86 0.75 0.67 0.61 0.55 0.51 0.47 0.43 0.38 0.33 0.31 0.30 0.32 0.44 0.64 0.91 1.27 1.55
1.09 1.26 1.48 1.66 1.78 1.81 1.80 1.82 1.80 1.74 1.72 1.66 1.60 1.59 1.55 1.49 1.44 1.44 1.43 1.38 1.30 1.25 1.21 1.15 1.09 1.03 0.93 0.82 0.72 0.65 0.57 0.51 0.46 0.41 0.38 0.37 0.37 0.37 0.42 0.54 0.70 0.98 1.36
1.21 1.35 1.53 1.78 1.89 1.87 1.88 1.91 1.91 1.81 1.73 1.73 1.66 1.64 1.60 1.54 1.49 1.53 1.50 1.43 1.37 1.36 1.29 1.21 1.14 1.07 0.98 0.90 0.82 0.76 0.67 0.59 0.52 0.45 0.41 0.38 0.41 0.41 0.41 0.46 0.55 0.73 1.08
1.20 1.27 1.49 1.76 1.90 1.91 1.94 1.94 2.01 1.98 1.86 1.81 1.76 1.69 1.62 1.58 1.52 1.55 1.55 1.49 1.44 1.46 1.42 1.30 1.19 1.07 0.97 0.89 0.82 0.77 0.72 0.68 0.68 0.65 0.56 0.46 0.41 0.44 0.46 0.48 0.52 0.57 0.78
1.30 1.39 1.51 1.76 1.90 2.02 2.09 2.11 2.10 2.08 1.98 1.90 1.84 1.70 1.63 1.63 1.62 1.57 1.55 1.50 1.46 1.45 1.45 1.40 1.28 1.14 1.01 0.91 0.87 0.81 0.71 0.65 0.64 0.61 0.57 0.52 0.43 0.41 0.49 0.54 0.56 0.53 0.58
1.33 1.42 1.50 1.69 1.78 2.01 2.17 2.08 1.98 1.92 1.90 1.86 1.81 1.80 1.75 1.77 1.77 1.71 1.65 1.62 1.57 1.47 1.36 1.35 1.35 1.32 1.23 1.13 1.12 1.02 0.85 0.72 0.64 0.58 0.55 0.52 0.47 0.42 0.43 0.53 0.60 0.57 0.52
1.20 1.28 1.37 1.57 1.75 1.92 2.07 2.03 1.90 1.87 1.85 1.86 1.81 1.85 1.92 1.95 1.94 1.85 1.70 1.67 1.65 1.58 1.46 1.34 1.35 1.38 1.31 1.26 1.29 1.29 1.11 0.94 0.75 0.58 0.53 0.50 0.46 0.46 0.46 0.48 0.55 0.61 0.57
1.09 1.15 1.28 1.52 1.71 1.94 2.11 2.26 2.21 2.19 2.15 2.07 1.94 1.84 1.83 1.88 1.85 1.78 1.67 1.62 1.63 1.64 1.56 1.44 1.34 1.32 1.29 1.19 1.16 1.40 1.36 1.02 0.72 0.59 0.54 0.52 0.50 0.50 0.48 0.48 0.50 0.56 0.61
0.98 1.07 1.20 1.52 1.75 1.94 2.10 2.21 2.27 2.22 2.14 2.00 1.87 1.81 1.75 1.71 1.72 1.69 1.66 1.60 1.52 1.49 1.44 1.38 1.34 1.29 1.27 1.25 1.18 1.13 1.13 1.03 0.97 0.74 0.54 0.51 0.52 0.56 0.56 0.55 0.55 0.58 0.62
0.98 1.02 1.12 1.35 1.62 1.85 2.05 2.12 2.19 2.17 2.08 2.03 2.02 1.97 1.94 1.85 1.75 1.71 1.67 1.67 1.59 1.49 1.41 1.37 1.37 1.35 1.31 1.25 1.18 1.07 1.00 0.91 0.89 0.95 0.73 0.55 0.55 0.54 0.56 0.59 0.60 0.61 0.63
1.07 1.10 1.14 1.24 1.44 1.70 1.89 1.97 2.01 2.04 2.01 1.98 2.02 2.00 1.96 1.86 1.74 1.63 1.60 1.59 1.56 1.46 1.36 1.32 1.33 1.36 1.35 1.27 1.17 1.09 1.08 1.02 0.90 0.94 0.87 0.66 0.62 0.57 0.57 0.61 0.65 0.66 0.66